Winona, MN

4:40 AM CDT on September 17, 2019 (GMT -0500)
Winona Municipal-Conrad

Weather History for KONA - July, 2019

Change the Weather History Date:

Monday, July 15, 2019

  Actual Average Record
Temperature  
Mean Temperature 79 °F -  
Max Temperature 89 °F 81 °F 98 °F (2006)
Min Temperature 69 °F 62 °F 53 °F (2007)
Cooling Degree Days 14    
Growing Degree Days 29 (Base 50)    
Moisture  
Dew Point 70 °F    
Average Humidity 71    
Maximum Humidity 94    
Minimum Humidity 52    
Precipitation  
Precipitation 0.54 in - - ()
Sea Level Pressure  
Sea Level Pressure 29.91 in    
Wind  
Wind Speed 5 mph (SW)    
Max Wind Speed 15 mph    
Max Gust Speed 26 mph    
Visibility 10 miles    
Events Rain , Thunderstorm    
Averages and records for this station are not official NWS values.
T = Trace of Precipitation, MM = Missing Value Source: NWS Daily Summary

Daily Weather History Graph

Daily Weather History Graph

Search for Another Location

Airport or City:

Astronomy

Jul. 15, 2019 Rise Set
Actual Time 5:37 AM CDT 8:47 PM CDT
Civil Twilight 5:02 AM CDT 9:22 PM CDT
Nautical Twilight 4:17 AM CDT 10:07 PM CDT
Astronomical Twilight 3:22 AM CDT 11:02 PM CDT
Moon 8:06 PM CDT (7/15) 4:24 AM CDT (7/15)
Length of Visible Light 16h 20m
Length of Day
15h 10m
Waxing Gibbous, 99% of the Moon is Illuminated
Jul 15
Waxing Gibbous
Jul 16
Full
Jul 24
Last Quarter
Jul 31
New
Aug 7
First Quarter

Hourly Weather History & Observations

Time (CDT) Temp. Heat Index Dew Point Humidity Pressure Visibility Wind Dir Wind Speed Gust Speed Precip Events Conditions
12:55 AM 78.8 °F - 71.6 °F 78% 30.00 in 10.0 mi Calm Calm - N/A   Clear
1:55 AM 77.0 °F - 71.6 °F 83% 29.99 in 10.0 mi NNW 6.9 mph - N/A   Scattered Clouds
2:55 AM 77.0 °F - 73.4 °F 89% 29.95 in 10.0 mi Calm Calm - N/A   Clear
3:55 AM 77.0 °F - 71.6 °F 83% 29.95 in 10.0 mi Calm Calm - N/A   Clear
4:55 AM 77.0 °F - 69.8 °F 78% 29.94 in 10.0 mi Calm Calm - N/A   Clear
5:55 AM 77.0 °F - 68.0 °F 74% 29.94 in 10.0 mi WSW 5.8 mph - N/A   Clear
6:55 AM 77.0 °F - 68.0 °F 74% 29.94 in 10.0 mi WSW 4.6 mph - N/A   Clear
7:55 AM 77.0 °F - 68.0 °F 74% 29.96 in 10.0 mi SW 5.8 mph - N/A   Scattered Clouds
8:55 AM 77.0 °F - 69.8 °F 78% 29.96 in 10.0 mi SW 4.6 mph - N/A   Mostly Cloudy
9:55 AM 80.6 °F 84.6 °F 71.6 °F 74% 29.94 in 10.0 mi SW 8.1 mph - N/A   Scattered Clouds
10:55 AM 84.2 °F 89.6 °F 71.6 °F 66% 29.92 in 10.0 mi SW 8.1 mph - N/A   Clear
11:55 AM 87.8 °F 97.6 °F 75.2 °F 66% 29.91 in 10.0 mi SW 9.2 mph - N/A   Clear
12:55 PM 89.6 °F 99.8 °F 75.2 °F 62% 29.90 in 10.0 mi SW 13.8 mph 19.6 mph N/A   Scattered Clouds
1:55 PM 89.6 °F 98.2 °F 73.4 °F 59% 29.89 in 10.0 mi SW 11.5 mph 17.3 mph N/A   Scattered Clouds
2:55 PM 87.8 °F 93.8 °F 71.6 °F 58% 29.88 in 10.0 mi SW 9.2 mph 16.1 mph N/A   Scattered Clouds
3:55 PM 84.2 °F 88.4 °F 69.8 °F 62% 29.88 in 10.0 mi SSW 4.6 mph - N/A   Clear
4:55 PM 86.0 °F 91.8 °F 71.6 °F 62% 29.86 in 10.0 mi SSW 3.5 mph - N/A   Scattered Clouds
5:55 PM 89.6 °F 96.2 °F 71.6 °F 55% 29.83 in 10.0 mi SSW 9.2 mph 19.6 mph N/A   Clear
6:55 PM 87.8 °F 91.4 °F 68.0 °F 52% 29.82 in 10.0 mi SW 8.1 mph - N/A   Mostly Cloudy
7:55 PM 82.4 °F 84.6 °F 66.2 °F 58% 29.83 in 10.0 mi SSW 4.6 mph - N/A   Scattered Clouds
8:55 PM 82.4 °F 84.6 °F 66.2 °F 58% 29.87 in 10.0 mi WSW 4.6 mph - N/A   Scattered Clouds
9:55 PM 77.0 °F - 66.2 °F 69% 29.95 in 10.0 mi North 15.0 mph 26.5 mph N/A   Overcast
10:55 PM 69.8 °F - 68.0 °F 94% 29.93 in 10.0 mi Calm Calm - 0.51 in Rain , Thunderstorm Rain
11:55 PM 69.8 °F - 66.2 °F 88% 29.90 in 10.0 mi SSE 4.6 mph - 0.03 in Rain Light Rain